• MPC Preparation (Info)

  • MPEC 2019-V02 : 2019 UJ13

    The following Minor Planet Electronic Circular may be linked-to from your own Web pages, but must not otherwise be redistributed electronically.

    A form allowing access to any MPEC is at the bottom of this page.


    Read MPEC 2019-V01 Read MPEC 2019-V03


    M.P.E.C. 2019-V02                              Issued 2019 November 1, 13:22 UT
    
         The Minor Planet Electronic Circulars contain information on unusual
             minor planets and routine data on comets.  They are published
        on behalf of Division F of the International Astronomical Union by the
              Minor Planet Center, Smithsonian Astrophysical Observatory,
                              Cambridge, MA 02138, U.S.A.
    
                 Prepared using the Tamkin Foundation Computer Network
    
                                  MPC@CFA.HARVARD.EDU
                URL https://www.minorplanetcenter.net/    ISSN 1523-6714
    
                                    2019 UJ13                                
    
    
    Observations:
         K19U13J  C2019 09 06.56280 01 44 20.039+05 02 20.59         22.3 wUEV002F51
         K19U13J  C2019 09 06.57424 01 44 19.852+05 02 17.32         22.3 wUEV002F51
         K19U13J  C2019 09 06.58558 01 44 19.665+05 02 13.77         22.4 wUEV002F51
         K19U13J* C2019 10 28.31542601 01 50.285-01 30 44.96         22.38wUEV002F51
         K19U13J  C2019 10 28.32806501 01 49.474-01 30 50.36         22.31wUEV002F51
         K19U13J  C2019 10 28.34079101 01 48.649-01 30 55.99         22.20wUEV002F51
         K19U13J  C2019 10 28.35344101 01 47.815-01 31 01.64         22.03wUEV002F51
         K19U13J  C2019 10 29.38802101 00 43.577-01 38 28.29         19.9 GVEV002F52
         K19U13J  C2019 10 29.39970401 00 42.855-01 38 33.57         21.5 GVEV002F52
         K19U13J  C2019 10 29.41146401 00 42.081-01 38 38.85         20.6 GVEV002F52
         K19U13J ^C2019 10 29.51920101 00 35.181-01 39 24.41         21.75GVEV002568
         K19U13J ^C2019 10 29.52014601 00 35.119-01 39 24.83         21.98GVEV002568
         K19U13J ^C2019 10 29.52109301 00 35.053-01 39 25.27         22.04GVEV002568
         K19U13J  C2019 10 31.18676 00 58 54.20 -01 51 00.2                VEV002V06
         K19U13J  C2019 10 31.19072 00 58 53.97 -01 51 01.3          22.1 GVEV002V06
         K19U13J  C2019 10 31.19468 00 58 53.70 -01 51 03.2          22.4 GVEV002V06
         K19U13J  C2019 10 31.19864 00 58 53.41 -01 51 04.4          22.2 GVEV002V06
         K19U13J KC2019 11 01.22814 00 57 51.88 -01 57 55.9                oEV002691
         K19U13J KC2019 11 01.23487 00 57 51.50 -01 57 59.1                oEV002691
         K19U13J KC2019 11 01.24160 00 57 51.04 -01 58 01.4                oEV002691
    
    Observer details:
    568 Mauna Kea.  Observers R. Wainscoat, H. Januszewski, S. Prunet.  Measurers 
       R. Weryk, R. Wainscoat.  3.6-m Canada-France-Hawaii Telescope + CCD.
    691 Steward Observatory, Kitt Peak-Spacewatch.  Observer M. T. Read.  0.9-m f/3 
       reflector + CCD.
    F51 Pan-STARRS 1, Haleakala.  Observers J. Bulger, T. Lowe, A. Schultz, M. 
       Willman.  Measurers K. Chambers, S. Chastel, T. de Boer, L. Denneau, J. 
       Fairlamb, H. Flewelling, M. Huber, C.-C. Lin, E. Magnier, Y. Ramanjooloo, R. 
       Wainscoat, R. Weryk.  1.8-m Ritchey-Chretien + CCD.
    F52 Pan-STARRS 2, Haleakala.  Observers J. Bulger, K. Chambers, T. Dukes, T. 
       Lowe, E. Magnier, A. Schultz, M. Willman.  Measurers S. Chastel, M. Huber, 
       Y. Ramanjooloo, R. Wainscoat, R. Weryk.  1.8-m Ritchey-Chretien + CCD.
    V06 Catalina Sky Survey-Kuiper.  Observer G. J. Leonard.  Measurers E. J. 
       Christensen, G. A. Farneth, D. C. Fuls, A. R. Gibbs, A. D. Grauer, H. 
       Groeller, R. A. Kowalski, S. M. Larson, G. J. Leonard, T. A. Pruyne, D. 
       Rankin, R. L. Seaman, F. C. Shelly, K. W. Wierzchos.  1.55-m reflector + CCD.
    
    Orbital elements:
    2019 UJ13                                                Earth MOID = 0.2770 AU
    Epoch 2019 Apr. 27.0 TT = JDT 2458600.5                 Bell
    M 256.90953              (2000.0)            P               Q
    n   0.25132951     Peri.  345.59560     -0.73498690     -0.67638242
    a   2.4867973      Node   151.65946     +0.63169896     -0.70871106
    e   0.4926030      Incl.    5.79964     +0.24647652     -0.20058777
    P   3.92           H   18.6           G   0.15           U   6
    Residuals in seconds of arc
    190906 F51  0.2-  0.0     191029 F52  0.3+  0.1-    191031 V06  1.1+  0.5-
    190906 F51  0.0   0.1+    191029 F52  0.7+  0.4-    191031 V06  0.8+  0.8-
    190906 F51  0.2+  0.1-    191029 F52  0.4+  0.6-    191031 V06  0.1+  0.4-
    191028 F51  0.1-  0.1+    191029 568  0.3-  0.5-    191101 691  0.8-  1.1+
    191028 F51  0.0   0.2+    191029 568  0.3-  0.5-    191101 691  0.3-  0.6+
    191028 F51  0.0   0.2+    191029 568  0.4-  0.5-    191101 691  1.0-  0.9+
    191028 F51  0.2-  0.0     191031 V06  0.9+  1.0-
    
    Ephemeris:
    2019 UJ13                a,e,i = 2.49, 0.49, 6                   q = 1.2618
    Date    TT    R. A. (2000) Decl.     Delta      r    Elong.  Phase     V
    2019 10 02    01 29 12.3 +02 09 12   1.5398  2.5209   165.2     5.8    22.0
    ...
    2019 10 17    01 14 01.0 -00 00 03   1.4512  2.4401   170.6     3.8    21.7
    ...
    2019 10 25    01 05 20.5 -01 05 43   1.4300  2.3959   162.1     7.3    21.8
    ...
    2019 10 31    00 59 05.3 -01 49 39   1.4257  2.3624   154.8    10.3    21.9
    2019 11 01    00 58 05.5 -01 56 23   1.4258  2.3567   153.6    10.8    21.9
    2019 11 02    00 57 06.6 -02 02 55   1.4263  2.3511   152.4    11.3    21.9
    ...
    2019 11 08    00 51 37.4 -02 37 47   1.4338  2.3170   145.1    14.2    22.0
    ...
    2019 11 16    00 45 38.1 -03 11 23   1.4557  2.2710   135.7    17.7    22.1
    ...
    2019 12 01    00 39 33.9 -03 31 11   1.5247  2.1831   119.2    23.2    22.3
    2019 UJ13                a,e,i = 2.49, 0.49, 6                   q = 1.2618
    
    A. U. Tomatic                (C) Copyright 2019 MPC           M.P.E.C. 2019-V02
    


    Read MPEC 2019-V01 Read MPEC 2019-V03


    MPEC number:

    Enter an MPEC number in one of the following forms:

    • 1997-B01 (the full form)
    • J97B01 (the packed version of the full form)
    • B01 (the abbreviated form)